Location: Unspecified
(0.0000°N, 0.0000°E)
Time: 11:24:40
(UTC+02:00)

Daily predictions for brighter satellites

Satellite Brightness Start Highest point End
(mag) Time Altitude Azimuth Time Altitude Azimuth Time Altitude Azimuth
ARIANE 5 R/B 4.2 19:25:56 10° W 19:30:33 71° S 20:17:26 10° E
ARIANE 5 R/B 4.2 19:25:56 10° W 19:30:33 71° S 20:17:25 10° E
Centaur AC-146 4.2 19:44:10 10° NW 19:47:55 38° NE 20:05:29 10° E
Cosmos 2154 Rocket 4.3 20:10:28 10° SSE 20:16:30 47° E 20:22:27 10° NNE
Cosmos 2184 Rocket 4.3 20:12:52 10° S 20:19:04 77° W 20:25:12 10° N
Cosmos 1269 Rocket 4.1 20:16:24 10° N 20:21:39 64° ENE 20:26:54 10° SSE
Cosmos 1809 Rocket 4.4 20:19:20 10° S 20:25:26 70° E 20:31:33 10° N
YAOGAN 1 2.5 20:24:17 10° SSE 20:28:37 74° ENE 20:32:54 10° N
Meteor 2-8 Rocket 4.5 20:22:46 10° N 20:28:56 80° E 20:35:06 10° S
Cosmos 1151 Rocket 4.3 20:26:06 10° SE 20:29:05 19° E 20:32:03 10° NE
Ariane H10+ 1.1 20:28:50 10° WNW 20:30:42 39° NNE 20:33:54 10° E
FENGYUN 3A 3.6 20:27:15 10° SSE 20:32:39 77° ENE 20:38:00 10° N
Meteor 2-14 Rocket 4.5 20:28:42 10° S 20:34:40 59° E 20:40:37 10° NNE
SL-16 R/B 2.5 20:30:59 10° S 20:36:22 44° ESE 20:41:42 10° NE
Delta 198 4.1 20:33:14 10° SW 20:37:01 37° SSE 20:40:50 13° E
SPOT 3 Rocket 4.4 20:33:06 10° SE 20:37:33 29° ENE 20:41:59 10° NNE
ALOS 2.6 20:37:07 10° S 20:41:46 69° WSW 20:46:24 10° NNW
CZ-3C R/B 1.9 20:40:00 10° W 20:43:16 69° SSW 20:53:53 14° ESE
H-2A R/B 3.2 20:41:46 10° SSE 20:45:13 38° E 20:48:40 10° N
EO 1 Del DPAF 4.2 20:41:58 10° N 20:45:39 51° WNW 20:49:23 10° SSW
Cosmos 2341 Rocket 4.1 20:40:56 10° S 20:47:13 59° E 20:53:25 10° NNE
Meteor 2-16 Rocket 4.4 20:41:29 10° S 20:47:33 62° E 20:53:34 10° NNE
BLOCK DM-SL 4.2 20:38:39 10° W 20:50:54 81° N 20:55:31 18° E
Centaur D-1AR AC-48 2.6 20:38:48 10° WNW 20:52:09 82° NNE 20:55:00 20° ESE
Thor Agena Rocket 3.7 20:49:07 10° NNE 20:54:14 52° ESE 20:59:22 10° S
SL-8 Rocket 4.4 20:49:32 10° SSE 20:55:24 40° E 21:01:12 10° NNE
Cosmos 494 Rocket 3.9 20:53:04 10° N 20:58:18 76° ENE 21:03:34 10° SSE
Sich 1 3.5 20:56:43 10° NNE 21:00:39 37° E 21:02:50 22° SE
Cosmos 1666 Rocket 4.1 20:58:38 10° NNE 21:02:38 35° E 21:04:14 26° SE
FREGAT/IRIS 3.9 21:05:31 24° NE 21:05:31 24° NE 21:07:10 10° NNE
Meteosat 1 Rocket2 4.2 20:59:41 10° SW 21:06:23 41° SSE 21:08:25 29° ESE
SL-24 R/B - RUBIN 2 4.5 21:07:01 10° N 21:11:01 31° ENE 21:11:20 30° ENE
Ariane H10+ 3.5 21:09:25 10° WNW 21:13:14 62° N 21:18:38 24° E
Envisat 3.9 21:14:30 28° ENE 21:14:30 28° ENE 21:18:28 10° NNE
DELTA 2 R/B (1) 4.5 21:09:16 10° WNW 21:14:30 43° SW 21:18:09 19° SSE
Cosmos 2344 3.7 21:06:47 10° SSW 21:16:07 89° WNW 21:23:47 10° NNE
Cosmos 1515 Rocket 4.0 21:18:43 10° SSW 21:23:07 64° W 21:27:31 10° N
GPS 2-05 Rocket1 3.9 21:20:25 10° NNW 21:22:52 32° N 21:22:52 32° N
Cosmos 1844 Rocket 2.6 21:19:15 10° N 21:24:48 66° ENE 21:27:00 37° SE
ARIANE 5 DEB (SYLDA) 4.1 21:17:03 10° W 21:29:58 73° S 21:31:58 46° ESE
Cosmos 1633 Rocket 2.9 21:25:53 10° N 21:30:13 70° E 21:30:18 70° E
ATLAS 2AS CENTAUR R/B 4.0 21:26:34 10° NNE 21:30:40 21° NE 21:30:40 21° NE
Cosmos 1452 Rocket 3.4 21:28:46 10° S 21:33:57 60° ESE 21:39:05 10° NNE
Ariane H10-3 3.6 21:35:47 10° WSW 21:36:21 15° WSW 21:36:21 15° WSW
Meteor 2-3 Rocket 3.7 21:32:31 10° N 21:38:06 59° E 21:38:18 59° E
BLOCK DM-SL R/B 3.0 21:22:19 10° W 21:39:50 89° N 21:40:31 67° E
CZ-4C R/B 3.0 21:35:20 10° SW 21:39:51 41° WNW 21:44:28 10° N
Nadezhda 3 Rocket 4.1 21:38:50 10° N 21:45:11 76° W 21:51:12 12° S
ATLAS 2A CENTAUR R/B 4.3 21:32:52 10° NW 21:46:20 29° N 21:48:15 25° NNE
Cosmos 1844 3.6 21:41:33 10° NNW 21:47:19 82° ENE 21:47:50 74° SE
Meteor 2-10 Rocket 3.7 21:44:45 10° S 21:50:17 77° W 21:55:59 10° N
ATLAS 2AS CENTAUR RB 2.5 21:47:01 10° W 21:50:24 71° N 21:52:49 44° ENE
Cosmos 1869 4.4 21:51:26 42° W 21:51:36 43° W 21:55:25 10° NNW
SEDSat Delta rocket 4.2 21:49:45 10° W 21:53:21 35° NW 21:53:21 35° NW
Cosmos 2251 Rocket 4.3 21:49:37 10° NNW 21:54:45 50° WSW 21:56:34 35° SSW
ATLAS 3B CENTAUR R/B 3.0 21:47:21 10° NW 21:59:58 54° NNE 22:00:28 53° NE
Cosmos 2278 Rocket 4.1 21:55:02 10° N 21:56:25 17° NNE 21:56:25 17° NNE
Cosmos 2098 Rocket 4.1 21:55:07 10° SSW 22:01:01 56° W 22:05:40 10° N
USA 267 3.5 22:11:28 56° SSW 22:11:28 56° SSW 22:16:28 10° SSW
